Location: Isle of Man Observatory
(54.1776°N, 4.6264°W)
Time: 07:49:59
(UTC+02:00)

ISS - Pass Details

Date: 19 May 2026
Orbit: 416 x 422 km, 51.6° (Epoch: 11 June)

Event Time Altitude Azimuth Distance (km) Brightness Sun altitude
Rises 23:58:30 0° 276° (W) 2,360 0.7 -10.5°
Reaches altitude 10° 00:00:44 10° 266° (W) 1,494 -0.6 -10.7°
Maximum altitude 00:03:44 31° 203° (SSW) 757 -2.8 -10.9°
Enters shadow 00:05:35 18° 151° (SSE) 1,094 -2.3 -11.1°
